TimeEDT,TemperatureF,Dew PointF,Humidity,Sea Level PressureIn,VisibilityMPH,Wind Direction,Wind SpeedMPH,Gust SpeedMPH,PrecipitationIn,Events,Conditions,WindDirDegrees,DateUTC
12:53 AM,26.1,12.0,55,29.91,10.0,WSW,5.8,-,N/A,,Clear,240,2013-03-22 04:53:00
1:53 AM,26.1,14.0,60,29.91,10.0,West,8.1,-,N/A,,Mostly Cloudy,260,2013-03-22 05:53:00
2:53 AM,27.0,14.0,58,29.91,10.0,WSW,3.5,-,N/A,,Clear,250,2013-03-22 06:53:00
3:53 AM,27.0,15.1,61,29.91,10.0,SW,5.8,-,N/A,,Overcast,230,2013-03-22 07:53:00
4:53 AM,27.0,16.0,63,29.89,10.0,West,9.2,17.3,N/A,,Scattered Clouds,260,2013-03-22 08:53:00
5:53 AM,28.0,16.0,61,29.90,10.0,West,18.4,-,N/A,,Overcast,280,2013-03-22 09:53:00
6:53 AM,28.9,16.0,58,29.91,10.0,West,11.5,20.7,N/A,,Overcast,260,2013-03-22 10:53:00
7:53 AM,28.9,17.1,61,29.93,10.0,West,15.0,-,N/A,,Overcast,280,2013-03-22 11:53:00
8:53 AM,30.9,17.1,57,29.95,10.0,West,16.1,-,N/A,,Overcast,270,2013-03-22 12:53:00
9:53 AM,30.9,17.1,57,29.97,10.0,West,13.8,-,N/A,,Mostly Cloudy,280,2013-03-22 13:53:00
10:53 AM,33.1,15.1,48,29.98,10.0,West,12.7,19.6,N/A,,Overcast,270,2013-03-22 14:53:00
11:53 AM,36.0,15.1,43,29.96,10.0,West,15.0,21.9,N/A,,Overcast,280,2013-03-22 15:53:00
12:53 PM,37.0,16.0,42,29.96,10.0,WNW,19.6,24.2,N/A,,Mostly Cloudy,300,2013-03-22 16:53:00
1:53 PM,39.0,17.1,41,29.95,10.0,WNW,18.4,25.3,N/A,,Scattered Clouds,300,2013-03-22 17:53:00
2:53 PM,39.9,17.1,40,29.94,10.0,WNW,18.4,-,N/A,,Clear,290,2013-03-22 18:53:00
3:53 PM,39.9,17.1,40,29.95,10.0,West,20.7,27.6,N/A,,Mostly Cloudy,270,2013-03-22 19:53:00
4:53 PM,39.9,17.1,40,29.96,10.0,West,18.4,23.0,N/A,,Scattered Clouds,280,2013-03-22 20:53:00
5:53 PM,39.0,17.1,41,29.96,10.0,WNW,12.7,21.9,N/A,,Clear,300,2013-03-22 21:53:00
6:53 PM,37.0,18.0,46,29.98,10.0,NW,12.7,-,N/A,,Clear,310,2013-03-22 22:53:00
7:53 PM,35.1,18.0,50,29.99,10.0,NNW,9.2,-,N/A,,Clear,330,2013-03-22 23:53:00
8:53 PM,33.1,18.0,54,30.02,10.0,North,5.8,-,N/A,,Clear,10,2013-03-23 00:53:00
9:53 PM,33.1,18.0,54,30.03,10.0,Calm,Calm,-,N/A,,Clear,0,2013-03-23 01:53:00
10:53 PM,32.0,18.0,56,30.04,10.0,Calm,Calm,-,N/A,,Clear,0,2013-03-23 02:53:00
11:53 PM,30.9,18.0,59,30.04,10.0,Calm,Calm,-,N/A,,Clear,0,2013-03-23 03:53:00